Overview Statistics Trail Chart Weather Telemetry Raw packets
 

This is the latest recevied weather packets stored in our database for station/object OK4PZ-5. If no packets are shown the sender has not sent any weather packets the latest 10 day(s).

<< 20 21 22 23 24 25 26 >>
Time Temp. Humidity Pressure Rain* Wind** Luminosity Snow
1788128103 15.56° C 93% 1018 hPa 0 mm - - -
1788127202 15.56° C 93% 1018 hPa 0 mm - - -
1788126302 15.56° C 93% 1018 hPa 0 mm - - -
1788125402 15.56° C 92% 1019 hPa 0 mm - - -
1788124502 15.56° C 92% 1019 hPa 0 mm - - -
1788123602 15.56° C 91% 1019 hPa 0 mm - - -
1788122702 16.11° C 90% 1019 hPa 0 mm - - -
1788121802 16.67° C 91% 1019 hPa 0 mm - - -
1788120913 16.67° C 89% 1018 hPa 0 mm - - -
1788120002 17.22° C 87% 1018 hPa 0 mm - - -
1788119102 17.78° C 86% 1018 hPa 0 mm - - -
1788118202 17.78° C 84% 1018 hPa 0 mm - - -
1788117302 18.33° C 81% 1018 hPa 0 mm - - -
1788115502 19.44° C 77% 1018 hPa 0 mm - - -
1788114602 20° C 75% 1018 hPa 0 mm - - -
1788113702 20° C 72% 1018 hPa 0 mm - - -
1788112802 21.11° C 68% 1018 hPa 0 mm - - -
1788111902 21.67° C 64% 1018 hPa 0 mm - - -
1788111002 23.33° C 57% 1018 hPa 0 mm - - -
1788110102 24.44° C 51% 1018 hPa 0 mm - - -
1788109202 25° C 49% 1018 hPa 0 mm - - -
1788108302 25.56° C 48% 1018 hPa 0 mm - - -
1788107402 25.56° C 47% 1018 hPa 0 mm - - -
1788106502 25.56° C 46% 1018 hPa 0 mm - - -
1788105603 26.67° C 44% 1018 hPa 0 mm - - -

* Rain latest hour (hover to see other rain measurements)
** Current wind speed in m/s (hover to see current wind gust speed)